This is the latest recevied weather packets stored in our database for station/object KB7STN. If no packets are shown the sender has not sent any weather packets the latest 10 day(s).
| Time | Temp. | Humidity | Pressure | Rain* | Wind** | Luminosity | Snow |
|---|---|---|---|---|---|---|---|
| 1788040897 | 22.22° C | 51% | 1020.8 hPa | 0 mm | - | - | - |
| 1788040605 | 22.78° C | 53% | 1020.8 hPa | 0 mm | - | - | - |
| 1788040297 | 22.78° C | 55% | 1020.8 hPa | 0 mm | - | - | - |
| 1788039997 | 22.78° C | 55% | 1020.9 hPa | 0 mm | - | - | - |
| 1788039697 | 22.22° C | 60% | 1020.8 hPa | 0 mm | - | - | - |
| 1788039397 | 21.67° C | 59% | 1020.9 hPa | 0 mm | - | - | - |
| 1788039097 | 21.67° C | 59% | 1021 hPa | 0 mm | - | - | - |
| 1788038797 | 21.67° C | 62% | 1020.9 hPa | 0 mm | - | - | - |
| 1788038497 | 21.67° C | 64% | 1021.1 hPa | 0 mm | - | - | - |
| 1788038197 | 21.67° C | 66% | 1021.3 hPa | 0 mm | - | - | - |
| 1788037897 | 21.11° C | 64% | 1021.4 hPa | 0 mm | - | - | - |
| 1788037597 | 21.11° C | 63% | 1021.4 hPa | 0 mm | - | - | - |
| 1788037297 | 21.11° C | 64% | 1021.4 hPa | 0 mm | - | - | - |
| 1788036997 | 21.11° C | 68% | 1021.5 hPa | 0 mm | - | - | - |
| 1788036697 | 21.11° C | 67% | 1021.7 hPa | 0 mm | - | - | - |
| 1788036397 | 20.56° C | 67% | 1021.7 hPa | 0 mm | - | - | - |
| 1788036097 | 20.56° C | 72% | 1021.7 hPa | 0 mm | - | - | - |
| 1788035797 | 20° C | 72% | 1021.7 hPa | 0 mm | - | - | - |
| 1788035497 | 20° C | 73% | 1022 hPa | 0 mm | - | - | - |
| 1788035197 | 20° C | 74% | 1022 hPa | 0 mm | - | - | - |
| 1788034897 | 20° C | 75% | 1022.1 hPa | 0 mm | - | - | - |
| 1788034597 | 19.44° C | 74% | 1022.1 hPa | 0 mm | - | - | - |
| 1788034297 | 19.44° C | 74% | 1022 hPa | 0 mm | - | - | - |
| 1788033997 | 19.44° C | 73% | 1022 hPa | 0 mm | - | - | - |
| 1788033697 | 19.44° C | 73% | 1022 hPa | 0 mm | - | - | - |
* Rain latest hour (hover to see other rain measurements)
** Current wind speed in m/s (hover to see current wind gust speed)